This is the latest recevied weather packets stored in our database for station/object W3JBS-2. If no packets are shown the sender has not sent any weather packets the latest 10 day(s).
| Time | Temp. | Humidity | Pressure | Rain* | Wind** | Luminosity | Snow |
|---|---|---|---|---|---|---|---|
| 1787418382 | 23.89° C | 74% | 1032.5 hPa | 0 mm | - | 1740 W/m² | - |
| 1787417482 | 23.33° C | 76% | 1021 hPa | 0 mm | - | 1746 W/m² | - |
| 1787416582 | 23.33° C | 77% | 1021 hPa | 0 mm | - | 1746 W/m² | - |
| 1787415682 | 22.78° C | 78% | 1021 hPa | 0 mm | - | 1749 W/m² | - |
| 1787414782 | 22.22° C | 79% | 1025.8 hPa | 0 mm | - | 1753 W/m² | - |
| 1787413881 | 22.22° C | 80% | 1014.3 hPa | 0 mm | - | 1754 W/m² | - |
| 1787412982 | 22.22° C | 80% | 982.6 hPa | 0 mm | - | 1754 W/m² | - |
| 1787412082 | 21.67° C | 81% | 1018.7 hPa | 0 mm | - | 1756 W/m² | - |
| 1787411182 | 21.67° C | 81% | 1018.7 hPa | 0 mm | - | 1756 W/m² | - |
| 1787409382 | 21.11° C | 85% | 1018.2 hPa | 0 mm | - | 1758 W/m² | - |
| 1787408482 | 21.11° C | 86% | 1018.8 hPa | 0 mm | - | 1760 W/m² | - |
| 1787407582 | 20.56° C | 87% | 1016.9 hPa | 0 mm | - | 1761 W/m² | - |
| 1787406682 | 20° C | 88% | 1015.5 hPa | 0 mm | - | 1763 W/m² | - |
| 1787405782 | 20° C | 88% | 1017.9 hPa | 0 mm | - | 1765 W/m² | - |
| 1787404882 | 20° C | 89% | 1027.5 hPa | 0 mm | - | 1767 W/m² | - |
| 1787403981 | 20° C | 89% | 1030 hPa | 0 mm | - | 1767 W/m² | - |
| 1787403082 | 20° C | 89% | 1029.3 hPa | 0 mm | - | 1767 W/m² | - |
| 1787402182 | 20° C | 90% | 1029.3 hPa | 0 mm | - | 1768 W/m² | - |
| 1787400382 | 20° C | 90% | 1023.3 hPa | 0 mm | - | 1765 W/m² | - |
| 1787399482 | 19.44° C | 90% | 1029.1 hPa | 0 mm | - | 1770 W/m² | - |
| 1787398581 | 19.44° C | 90% | 1024.7 hPa | 0 mm | - | 1772 W/m² | - |
| 1787397682 | 18.89° C | 90% | 1030 hPa | 0 mm | - | 1772 W/m² | - |
| 1787395881 | 18.89° C | 89% | 1026.6 hPa | 0 mm | - | 1772 W/m² | - |
| 1787394982 | 18.89° C | 89% | 1009.4 hPa | 0 mm | - | 1774 W/m² | - |
| 1787394081 | 18.89° C | 89% | 1008.4 hPa | 0 mm | - | 1774 W/m² | - |
* Rain latest hour (hover to see other rain measurements)
** Current wind speed in m/s (hover to see current wind gust speed)